Flag for U.S.A. Weather past 2 weeks in Salinas, California, U.S.A.

Now
48 °F

Clear.


Feels Like: 46 °F
Forecast: 44 / 54 °F
Wind: 5 mph from West

Location: Salinas Municipal Airport

Current Time: Dec 25, 2014 at 1:35:27 AM

Latest Report: Dec 25, 2014 at 12:53 AM


Visibility: 10 mi

Pressure: 30.08 "Hg

Humidity: 77%

Dew point: 41 °F

Location of SalinasLocation

Historic Weather in Salinas — Graph

°F

Salinas temperature yesterday

Maximum temperature yesterday: 62 °F (at 1:53 PM)
Minimum temperature yesterday: 49 °F (at 10:53 PM)
Average temperature yesterday: 55 °F

Past Weeks' High & Low Weather Summary

 TemperatureHumidityPressure
High74 °F (Dec 23, 2:53 PM)100% (Dec 11, 1:53 PM)30.35 "Hg (Dec 11, 1:53 PM)
Low48 °F (Dec 13, 12:53 AM)43% (Dec 23, 2:53 PM)29.64 "Hg (Dec 11, 2:53 PM)
Average56 °F80%30.08 "Hg
* Reported Dec 9 11:00 PM — Dec 24 11:53 PM, Salinas, Weather by CustomWeather, © 2014

Note: Actual official high and low records may vary slightly from our data, if they occured in-between our weather recording intervals... More about our weather records

Advertising

Salinas weather history for previous 24 hours

 ConditionsComfort  
Time TempWeatherWind HumidityBarometerVisibility
11:53 PM
Dec 24
49 °FClear.No wind74%30.07 "Hg10 mi
10:53 PM49 °FClear.No wind74%30.06 "Hg10 mi
9:53 PM52 °FClear.5 mph69%30.05 "Hg10 mi
8:53 PM53 °FClear.6 mph69%30.03 "Hg10 mi
7:53 PM55 °FClear.7 mph64%30.03 "Hg10 mi
6:53 PM56 °FPassing clouds.13 mph62%30.04 "Hg10 mi
5:53 PM57 °FClear.12 mph67%30.03 "Hg10 mi
4:53 PM58 °FMore clouds than sun.14 mph84%30.00 "Hg10 mi
3:53 PM60 °FMostly cloudy.12 mph78%30.00 "Hg4 mi
2:53 PM62 °FOvercast.14 mph67%30.02 "Hg10 mi
1:53 PM62 °FPartly sunny.14 mph67%30.03 "Hg10 mi
12:53 PM61 °FOvercast.6 mph75%30.04 "Hg10 mi
11:53 AM61 °FMore clouds than sun.10 mph78%30.11 "Hg10 mi
11:03 AM57 °FMore clouds than sun.No wind88%30.12 "Hg8 mi
10:53 AM57 °FMostly cloudy.No wind87%30.14 "Hg7 mi
9:53 AM57 °FOvercast.3 mph78%30.14 "Hg10 mi
8:53 AM53 °FSunny.5 mph83%30.12 "Hg9 mi
7:53 AM52 °FSunny.13 mph83%30.08 "Hg9 mi
6:53 AM52 °FClear.16 mph83%30.08 "Hg10 mi
5:53 AM53 °FClear.15 mph83%30.08 "Hg10 mi
4:53 AM53 °FClear.12 mph83%30.09 "Hg10 mi
3:53 AM53 °FClear.9 mph83%30.11 "Hg10 mi
2:53 AM53 °FClear.9 mph83%30.12 "Hg10 mi
1:53 AM53 °FClear.7 mph86%30.13 "Hg10 mi
Weather by CustomWeather, © 2014

See weather overviewHow to use our weather pages